Location: Trebic
(49.2170°N, 15.8830°E)
Time: 15:19:15
(UTC+02:00)

Transit 2A - Visible Passes

Search period start: 21 July 2019 00:00
Search period end: 31 July 2019 00:00
Orbit: 594 x 964 km, 66.7° (Epoch: 20 July)

Date Brightness Start Highest point End Pass type
(mag) Time Alt. Az. Time Alt. Az. Time Alt. Az.
21 Jul 7.6 01:35:55 10° NNW 01:40:53 34° NE 01:45:23 10° ESE visible
21 Jul 6.0 03:19:14 10° NW 03:24:21 51° WSW 03:28:57 10° SSE visible
21 Jul 8.9 21:32:02 10° NW 21:35:41 16° NNW 21:39:09 10° NNE visible
21 Jul 8.9 23:18:31 10° NNW 23:21:19 14° N 23:24:01 10° NE visible
22 Jul 8.0 01:01:52 10° NNW 01:06:32 27° NE 01:10:47 10° E visible
22 Jul 5.8 02:45:01 10° NW 02:50:19 72° WSW 02:54:33 13° SSE visible
22 Jul 7.7 04:31:12 10° W 04:32:20 11° W 04:33:27 10° WSW visible
22 Jul 8.9 22:44:06 10° NNW 22:46:44 13° N 22:49:15 10° NNE visible
23 Jul 8.3 00:27:48 10° NNW 00:32:07 22° NNE 00:36:05 10° E visible
23 Jul 5.9 02:10:50 10° NW 02:16:13 83° NE 02:19:57 17° SE visible
23 Jul 7.4 03:55:31 10° WNW 03:58:34 16° WSW 04:00:21 13° SW visible
23 Jul 8.9 22:09:31 10° NNW 22:12:08 13° N 22:14:38 10° NNE visible
23 Jul 8.5 23:53:45 10° NNW 23:57:39 19° NNE 00:01:17 10° ENE visible
24 Jul 6.3 01:36:43 10° NNW 01:42:03 61° NE 01:45:37 18° SE visible
24 Jul 7.0 03:20:44 10° WNW 03:24:44 23° WSW 03:26:01 21° SW visible
24 Jul 8.9 21:34:46 10° NW 21:37:32 13° N 21:40:10 10° NNE visible
24 Jul 8.5 23:19:39 10° NNW 23:23:08 17° NNE 23:26:26 10° ENE visible
25 Jul 6.9 01:02:38 10° NNW 01:07:49 45° NE 01:11:28 16° ESE visible
25 Jul 6.5 02:46:15 10° NW 02:50:51 33° WSW 02:51:53 30° SW visible
25 Jul 8.6 22:45:30 10° NNW 22:48:36 15° NNE 22:51:32 10° NE visible
26 Jul 7.3 00:28:34 10° NNW 00:33:31 35° NE 00:37:27 13° ESE visible
26 Jul 6.1 02:11:54 10° NW 02:16:54 47° WSW 02:17:52 41° SSW visible
26 Jul 8.6 22:11:16 10° NNW 22:14:02 14° N 22:16:40 10° NE visible
26 Jul 7.7 23:54:31 10° NNW 23:59:10 28° NE 00:03:25 10° E visible
27 Jul 5.8 01:37:40 10° NW 01:42:53 67° WSW 01:43:59 50° S visible
27 Jul 8.7 21:36:54 10° NNW 21:39:26 13° N 21:41:52 10° NNE visible
27 Jul 8.0 23:20:28 10° NNW 23:24:46 23° NNE 23:28:44 10° E visible
28 Jul 5.8 01:03:30 10° NW 01:08:48 88° ENE 01:10:10 48° SE visible
28 Jul 7.7 02:48:24 10° WNW 02:50:36 14° W 02:50:36 14° W visible
28 Jul 8.2 22:46:25 10° NNW 22:50:19 19° NNE 22:53:57 10° ENE visible
29 Jul 6.1 00:29:23 10° NNW 00:34:39 65° NE 00:36:25 38° ESE visible
29 Jul 7.3 02:13:30 10° WNW 02:16:52 21° W 02:16:52 21° W visible
29 Jul 8.3 22:12:20 10° NNW 22:15:49 17° NNE 22:19:05 10° ENE visible
29 Jul 6.6 23:55:17 10° NNW 00:00:26 48° NE 00:02:44 27° ESE visible
30 Jul 6.8 01:38:58 10° NW 01:43:11 30° WSW 01:43:11 30° WSW visible
30 Jul 8.4 21:38:13 10° NNW 21:41:17 15° NNE 21:44:12 10° NE visible
30 Jul 7.1 23:21:13 10° NNW 23:26:09 36° NE 23:29:06 19° E visible
